Starlink 32431

operational
NORAD ID: 61256 Int'l Des: 2024-175 Owner: SPXS Country: US Constellation: starlink
LEOCIRCULAR

Starlink 32431について

説明を読み込み中...

リアルタイム位置

3D地球を読み込み中...

次回通過

高度履歴

Altitude vs Time

uPlot chart will show altitude changes over time

軌道要素

1 61256U 24175P 25353.02634279 -.00000897 00000-0 -18147-4 0 9991
2 61256 53.1583 208.7138 0001258 89.6585 270.4560 15.30202874 69105
Epoch: Dec 19, 2025 • Age: 15 hours

現在のステータス

高度 492.9 km
速度 7.62 km/s
衛星直下点 -49.03°S, 118.94°E
打ち上げ日 Sep 25, 2024
運用期間 1.2 years
タイプ internet

技術仕様

分類 Payload
質量 730.00 kg
乾燥質量 700.00 kg
総質量 730.00 kg
長さ 0.30 m
直径 4.10 m
スパン 29.00 m
形状 Box + pan
製造者 SPXS
バスタイプ Starlink V2M
フェーズステータス In Orbit
所有者/国 SPXS/US

大規模コンステレーション

Loading constellations...